Погода в Елембаеве

Россия / Республика Марий Эл     56°58′13″N   48°35′24″E
темп.,
°C
ветер,
м/с
пор.,
м/с
влажн.,
%
обл.,
%
осадки,
мм/ч
давл.,
гПа
погр.,
м
25 февраля, чт
чт2500:00−24юз229794 0.0 103420
03:00−24ююз349794 0.0 103253
06:00−23ю4796100 0.0 1030184
09:00−20ю61093100 0.0 1027270
12:00−17ююв71194100 0.1 1023413
15:00−16ююв71294100 0.8 1021514
18:00−17ююв61295100 0.8 1019571
21:00−17ююв5109399 1.0 1019418
26 февраля, пт
пт2600:00−17ююв5109499 0.1 1017387
03:00−17ююв5995100 0.4 1017402
06:00−18юв499599 0.2 1016312
09:00−16ююв599394 0.3 1015346
12:00−13ююв6992100 0.1 1013429
15:00−12юв71291100 0.1 1009468
18:00−11юв91594100 0.9 1004494
21:00−10ююв91694100 4.5 999559
27 февраля, сб
сб2700:00−9юв71295100 4.1 995438
03:00−8юв5895100 5.9 994217
06:00−7вюв4596100 1.6 992121
09:00−7всв5696100 2.8 993152
12:00−7св6895100 0.7 994309
15:00−8ссв6994100 1.4 996444
18:00−12ссв51092100 0.3 1001472
21:00−13с4995100 0.3 1004286
28 февраля, вс
вс2800:00−17с479788 0.0 1004112
03:00−19с349976 0.0 100673
06:00−20с359979 0.0 100884
09:00−19с479567 0.0 1009254
12:00−16с579059 0.0 1011422
15:00−15с589076 0.0 1012609
18:00−18с4696100 0.0 1014103
21:00−19с369891 0.0 101787
1 марта, пн
пн100:00−20с349915 0.0 101856
03:00−22ссз44998 0.0 102062
06:00−22ссз34990 0.0 102244
09:00−19ссз34960 0.0 1023142
12:00−14зсз238844 0.0 1023279
15:00−11з359262 0.0 1022325
18:00−12юз499696 0.0 1021207
21:00−9юз5109598 0.3 1019308